User: anonymous   Login
Location: Unspecified
(0.0000°N, 0.0000°E)
Time: 07:16:12
(UTC+00:00)
Language:

LightSail 2 - Orbit

View from above orbital plane
View from above orbital plane
View from above satellite
View from above satellite

Ground track
Ground track

The orbit data is extracted from the following two-line orbital elements,

1 44420U 19036AC  20224.84151713 +.00006116 +00000-0 +13123-2 0  9999
2 44420 024.0059 117.7127 0009459 029.9257 330.1775 14.56110900058403
Epoch (UTC): 11 August 2020 20:11:47
Eccentricity: 0.0009459
inclination: 24.0059°
perigee height: 699 km
apogee height: 712 km
right ascension of ascending node: 117.7127°
argument of perigee: 29.9257°
revolutions per day: 14.56110900
mean anomaly at epoch: 330.1775°
orbit number at epoch: 5840

The dashed part of the orbit path shows where the satellite is in the earth's shadow,  

DLR